Location: Bocianicha
(51.5066°N, 19.2563°E)
Time: 14:39:18
(UTC+00:00)

Meteor 2-1 Rocket - Pass Details

Date: 15 June 2025
Orbit: 821 x 913 km, 81.3° (Epoch: 18 July)

Event Time Altitude Azimuth Distance (km) Brightness Sun altitude
Rises 00:40:56 0° 346° (NNW) 3,533 8.2 -10.9°
Reaches altitude 10° 00:43:24 10° 344° (NNW) 2,597 7.5 -10.7°
Maximum altitude 00:49:19 74° 261° (W) 951 4.4 -10.2°
Drops below altitude 10° 00:55:15 10° 178° (S) 2,597 6.2 -9.8°
Enters shadow 00:56:07 - 177° (S) 2,923 6.5 -9.7°
